STARLINK-1166, 45060

Orbit data source: Space-Track

STARLINK-1166, 45060 is a payload satellite owned by SpaceX/Seattle (US) in LEO that was launched on Wed, 29 Jan 2020 UTC via an FALCON 9 launch vehicle from the Air Force Eastern Test Range (AFETR). Payload-class satellites include a variety of spacecraft equipped with specific instruments for various scientific and technological missions. These include communications satellites like Starlink; space stations such as the ISS; scientific satellites like the Hubble; Earth observation satellites from companies like Planet Labs, Umbra, and HawkEye 360; GPS; miniature CubeSats for education and research; and military/defense satellites.

Loading next visibility...
Identifier
45060, 2020-006S
Orbit
LEO
Country
Flag of USUS
Related business
Manufacturer
SpaceX/Seattle
Mission
Operational Commercial Communications
Bus & Motor
STARLINK, Unknown motor
Mass
260 kg wet, ~248 kg dry
Launch date (UTC)
2020-01-29 (6 years ago)
Launch vehicle
FALCON 9
Launch site
Air Force Eastern Test Range (AFETR)
Object type
Payload
Rocket body
Debris
Shape & HBR
Box + 1 Pan, 10.1 m
Radar Cross Section
13.562 m², Large (>1 m²)

Expand to show TLE details & history
Last TLE update: 1 day ago

TLE from 1 day ago
0 STARLINK-1166
1 45060U 20006S   25302.85595090  .00005781  00000-0  40653-3 0  9998
2 45060  53.0528 153.9563 0001476  83.0862 277.0295 15.06410360316746
Epoch: 2025-10-29T20:32Z
TLE epoch observation values (Epoch: 2025-10-29T20:32:34.157Z)
Latitude
-0.00002°
Longitude
167.39087°
Altitude
547.934 km
Speed
7.589 km/s
True Right ascension
10h 15m 49s
True Declination
0° 00' 00"
Sunlit
Object was in daylight at epoch
Visualization orbit readout
Latitude
Unknown
Longitude
Unknown
Altitude
Unknown
Speed
Unknown
Apparent Right ascension
Unknown
Apparent Declination
Unknown
Sunlit
N/A
Visualization observer readout
Local Sidereal Time
22:06:15
Azimuth
Unknown
Elevation
Unknown
Doppler factor
Unknown
Orbital elements
Apogee altitude
548.473 km
Perigee altitude
546.429 km
Semi-major axis
6,925.588 km
Eccentricity
0.00015
Inclination
53.0528°
RAAN
153.9563°
Arg. of periapsis
83.0862°
True anomaly
277.01271°
Mean anomaly
277.0295°
Eccentric anomaly
277.02111°
Mean motion
3.76581 °/min
Orbital period
95.6 mins
BSTAR
0.00040653
Loading maneuver chart data...
Computing Atmospheric mass density...

Documentation

Showing up to 5 results
|